Wetterdaten: Sonntag, 06.06.2010
Datum Zeit Temp. a Sch. Temp. a Son. Temp. a Bod. Feuchte a. Luftdruck Regen Wind Richtung Richtung Sonnenschein Helligkeit Taupunkt Windchill
06.06.2010 00:02 15,0 C 16,8 C 17,0 C 74 % 1017 hPa 0,0 l/m 0,0 m/s (0 Bft) O-SO 110 0 min 0 lux 10,4 C 15,0 C
06.06.2010 00:07 15,0 C 16,6 C 16,9 C 75 % 1017 hPa 0,0 l/m 0,0 m/s (0 Bft) O-SO 110 0 min 0 lux 10,6 C 15,0 C
06.06.2010 00:12 14,9 C 16,6 C 16,9 C 75 % 1017 hPa 0,0 l/m 0,0 m/s (0 Bft) O-SO 110 0 min 0 lux 10,5 C 14,9 C
06.06.2010 00:17 14,7 C 16,5 C 16,3 C 75 % 1017 hPa 0,0 l/m 0,0 m/s (0 Bft) O-SO 110 0 min 0 lux 10,3 C 14,7 C
06.06.2010 00:22 14,6 C 16,3 C 15,9 C 76 % 1017 hPa 0,0 l/m 0,0 m/s (0 Bft) O-SO 110 0 min 0 lux 10,4 C 14,6 C
06.06.2010 00:27 14,5 C 16,3 C 16,4 C 76 % 1017 hPa 0,0 l/m 0,0 m/s (0 Bft) O-SO 110 0 min 0 lux 10,3 C 14,5 C
06.06.2010 00:32 14,4 C 16,1 C 16,3 C 77 % 1017 hPa 0,0 l/m 0,0 m/s (0 Bft) O-SO 110 0 min 0 lux 10,4 C 14,4 C
06.06.2010 00:37 14,3 C 16,0 C 15,8 C 77 % 1017 hPa 0,0 l/m 0,0 m/s (0 Bft) O-SO 110 0 min 0 lux 10,3 C 14,3 C
06.06.2010 00:43 14,2 C 15,9 C 16,0 C 77 % 1017 hPa 0,0 l/m 0,0 m/s (0 Bft) O-SO 110 0 min 0 lux 10,2 C 14,2 C
06.06.2010 00:47 14,1 C 15,8 C 16,2 C 77 % 1017 hPa 0,0 l/m 0,0 m/s (0 Bft) O-SO 110 0 min 0 lux 10,1 C 14,1 C
06.06.2010 00:52 14,1 C 15,7 C 16,2 C 77 % 1017 hPa 0,0 l/m 0,0 m/s (0 Bft) O-SO 110 0 min 0 lux 10,1 C 14,1 C
06.06.2010 00:57 14,0 C 15,6 C 15,9 C 77 % 1017 hPa 0,0 l/m 0,0 m/s (0 Bft) O-SO 110 0 min 0 lux 10,0 C 14,0 C
06.06.2010 01:02 14,0 C 15,6 C 15,6 C 78 % 1017 hPa 0,0 l/m 0,0 m/s (0 Bft) O-SO 110 0 min 0 lux 10,2 C 14,0 C
06.06.2010 01:07 13,8 C 15,5 C 15,2 C 79 % 1017 hPa 0,0 l/m 0,0 m/s (0 Bft) O-SO 110 0 min 0 lux 10,2 C 13,8 C
06.06.2010 01:12 13,7 C 15,4 C 15,7 C 78 % 1017 hPa 0,0 l/m 0,0 m/s (0 Bft) O-SO 110 0 min 0 lux 9,9 C 13,7 C
06.06.2010 01:17 13,6 C 15,3 C 15,8 C 79 % 1017 hPa 0,0 l/m 0,0 m/s (0 Bft) O-SO 110 0 min 0 lux 10,0 C 13,6 C
06.06.2010 01:22 13,5 C 15,2 C 15,7 C 79 % 1017 hPa 0,0 l/m 0,0 m/s (0 Bft) O-SO 110 0 min 0 lux 9,9 C 13,5 C
06.06.2010 01:28 13,4 C 15,0 C 15,4 C 79 % 1017 hPa 0,0 l/m 0,0 m/s (0 Bft) O-SO 110 0 min 0 lux 9,8 C 13,4 C
06.06.2010 01:33 13,4 C 14,9 C 15,1 C 79 % 1017 hPa 0,0 l/m 0,0 m/s (0 Bft) O-SO 110 0 min 0 lux 9,8 C 13,4 C
06.06.2010 01:37 13,3 C 14,8 C 15,3 C 80 % 1017 hPa 0,0 l/m 0,0 m/s (0 Bft) O-SO 110 0 min 0 lux 9,9 C 13,3 C
06.06.2010 01:42 13,2 C 14,8 C 15,1 C 80 % 1017 hPa 0,0 l/m 0,0 m/s (0 Bft) O-SO 110 0 min 0 lux 9,8 C 13,2 C
06.06.2010 01:47 13,2 C 14,6 C 15,0 C 80 % 1017 hPa 0,0 l/m 0,0 m/s (0 Bft) O-SO 110 0 min 0 lux 9,8 C 13,2 C
06.06.2010 01:52 13,1 C 14,6 C 15,0 C 81 % 1017 hPa 0,0 l/m 0,0 m/s (0 Bft) O-SO 110 0 min 0 lux 9,9 C 13,1 C
06.06.2010 01:57 12,9 C 14,5 C 14,8 C 81 % 1017 hPa 0,0 l/m 0,0 m/s (0 Bft) O-SO 110 0 min 0 lux 9,7 C 12,9 C
06.06.2010 02:02 12,9 C 14,4 C 14,6 C 81 % 1017 hPa 0,0 l/m 0,0 m/s (0 Bft) O-SO 110 0 min 0 lux 9,7 C 12,9 C
06.06.2010 02:07 12,8 C 14,3 C 14,6 C 81 % 1017 hPa 0,0 l/m 0,0 m/s (0 Bft) O-SO 110 0 min 0 lux 9,6 C 12,8 C
06.06.2010 02:12 12,7 C 14,2 C 14,5 C 82 % 1017 hPa 0,0 l/m 0,0 m/s (0 Bft) O-SO 110 0 min 0 lux 9,7 C 12,7 C
06.06.2010 02:17 12,7 C 14,1 C 14,3 C 82 % 1017 hPa 0,0 l/m 0,0 m/s (0 Bft) O-SO 110 0 min 0 lux 9,7 C 12,7 C
06.06.2010 02:22 12,6 C 14,1 C 13,9 C 82 % 1017 hPa 0,0 l/m 0,0 m/s (0 Bft) O-SO 110 0 min 0 lux 9,6 C 12,6 C
06.06.2010 02:27 12,5 C 14,0 C 14,3 C 83 % 1017 hPa 0,0 l/m 0,0 m/s (0 Bft) O-SO 110 0 min 0 lux 9,7 C 12,5 C
06.06.2010 02:32 12,4 C 13,9 C 14,0 C 83 % 1017 hPa 0,0 l/m 0,0 m/s (0 Bft) O-SO 110 0 min 0 lux 9,6 C 12,4 C
06.06.2010 02:37 12,4 C 13,8 C 14,1 C 83 % 1017 hPa 0,0 l/m 0,0 m/s (0 Bft) O-SO 110 0 min 0 lux 9,6 C 12,4 C
06.06.2010 02:42 12,3 C 13,8 C 14,2 C 83 % 1016 hPa 0,0 l/m 0,0 m/s (0 Bft) O-SO 110 0 min 0 lux 9,5 C 12,3 C
06.06.2010 02:47 12,2 C 13,7 C 13,9 C 84 % 1016 hPa 0,0 l/m 0,0 m/s (0 Bft) O-SO 110 0 min 0 lux 9,6 C 12,2 C
06.06.2010 02:52 12,2 C 13,6 C 13,5 C 83 % 1016 hPa 0,0 l/m 0,0 m/s (0 Bft) O-SO 110 0 min 0 lux 9,4 C 12,2 C
06.06.2010 02:57 12,1 C 13,6 C 13,7 C 83 % 1016 hPa 0,0 l/m 0,0 m/s (0 Bft) O-SO 110 0 min 0 lux 9,3 C 12,1 C
06.06.2010 03:02 12,0 C 13,6 C 13,7 C 84 % 1016 hPa 0,0 l/m 0,0 m/s (0 Bft) O-SO 110 0 min 0 lux 9,4 C 12,0 C
06.06.2010 03:07 11,9 C 13,4 C 13,8 C 84 % 1016 hPa 0,0 l/m 0,0 m/s (0 Bft) O-SO 110 0 min 0 lux 9,3 C 11,9 C
06.06.2010 03:12 11,9 C 13,4 C 13,1 C 84 % 1016 hPa 0,0 l/m 0,0 m/s (0 Bft) O-SO 110 0 min 0 lux 9,3 C 11,9 C
06.06.2010 03:17 11,8 C 13,3 C 13,6 C 84 % 1016 hPa 0,0 l/m 0,0 m/s (0 Bft) O-SO 110 0 min 0 lux 9,2 C 11,8 C
06.06.2010 03:22 11,8 C 13,2 C 13,8 C 84 % 1016 hPa 0,0 l/m 0,0 m/s (0 Bft) O-SO 110 0 min 0 lux 9,2 C 11,8 C
06.06.2010 03:27 11,8 C 13,2 C 13,2 C 84 % 1016 hPa 0,0 l/m 0,0 m/s (0 Bft) O-SO 110 0 min 0 lux 9,2 C 11,8 C
06.06.2010 03:32 11,7 C 13,1 C 13,4 C 84 % 1016 hPa 0,0 l/m 0,0 m/s (0 Bft) O-SO 110 0 min 0 lux 9,1 C 11,7 C
06.06.2010 03:37 11,6 C 13,0 C 13,4 C 84 % 1016 hPa 0,0 l/m 0,0 m/s (0 Bft) O-SO 110 0 min 0 lux 9,0 C 11,6 C
06.06.2010 03:42 11,6 C 12,9 C 13,2 C 85 % 1016 hPa 0,0 l/m 0,0 m/s (0 Bft) O-SO 110 0 min 0 lux 9,2 C 11,6 C
06.06.2010 03:47 11,5 C 12,9 C 13,2 C 85 % 1016 hPa 0,0 l/m 0,0 m/s (0 Bft) O-SO 110 0 min 0 lux 9,1 C 11,5 C
06.06.2010 03:52 11,4 C 12,8 C 13,1 C 85 % 1016 hPa 0,0 l/m 0,0 m/s (0 Bft) O-SO 110 0 min 0 lux 9,0 C 11,4 C
06.06.2010 03:57 11,4 C 12,7 C 13,4 C 85 % 1016 hPa 0,0 l/m 0,0 m/s (0 Bft) O-SO 110 0 min 0 lux 9,0 C 11,4 C
06.06.2010 04:02 11,4 C 12,7 C 12,6 C 85 % 1016 hPa 0,0 l/m 0,0 m/s (0 Bft) O-SO 110 0 min 0 lux 9,0 C 11,4 C
06.06.2010 04:07 11,3 C 12,6 C 13,1 C 85 % 1016 hPa 0,0 l/m 0,0 m/s (0 Bft) O-SO 110 0 min 0 lux 8,9 C 11,3 C
06.06.2010 04:12 11,3 C 12,6 C 12,9 C 85 % 1016 hPa 0,0 l/m 0,0 m/s (0 Bft) O-SO 110 0 min 0 lux 8,9 C 11,3 C
06.06.2010 04:17 11,2 C 12,5 C 12,8 C 85 % 1016 hPa 0,0 l/m 0,0 m/s (0 Bft) O-SO 110 0 min 0 lux 8,8 C 11,2 C
06.06.2010 04:22 11,1 C 12,4 C 12,7 C 86 % 1016 hPa 0,0 l/m 0,0 m/s (0 Bft) O-SO 110 0 min 0 lux 8,8 C 11,1 C
06.06.2010 04:27 11,0 C 12,4 C 12,8 C 86 % 1016 hPa 0,0 l/m 0,0 m/s (0 Bft) O-SO 110 0 min 0 lux 8,7 C 11,0 C
06.06.2010 04:32 11,0 C 12,3 C 12,7 C 86 % 1016 hPa 0,0 l/m 0,0 m/s (0 Bft) O-SO 110 0 min 0 lux 8,7 C 11,0 C
06.06.2010 04:37 11,0 C 12,2 C 12,4 C 86 % 1016 hPa 0,0 l/m 0,0 m/s (0 Bft) O-SO 110 0 min 0 lux 8,7 C 11,0 C
06.06.2010 04:42 10,8 C 12,2 C 12,7 C 86 % 1016 hPa 0,0 l/m 0,0 m/s (0 Bft) O-SO 110 0 min 0 lux 8,6 C 10,8 C
06.06.2010 04:47 10,8 C 12,1 C 13,0 C 86 % 1016 hPa 0,0 l/m 0,0 m/s (0 Bft) O-SO 110 0 min 0 lux 8,6 C 10,8 C
06.06.2010 04:52 10,9 C 12,1 C 12,2 C 87 % 1016 hPa 0,0 l/m 0,0 m/s (0 Bft) O-SO 110 0 min 41 lux 8,8 C 10,9 C
06.06.2010 04:57 10,9 C 12,0 C 12,2 C 87 % 1015 hPa 0,0 l/m 0,0 m/s (0 Bft) O-SO 110 0 min 76 lux 8,8 C 10,9 C
06.06.2010 05:02 10,8 C 12,0 C 12,3 C 87 % 1016 hPa 0,0 l/m 0,0 m/s (0 Bft) O-SO 110 0 min 116 lux 8,7 C 10,8 C
06.06.2010 05:07 10,8 C 11,9 C 12,6 C 87 % 1016 hPa 0,0 l/m 0,0 m/s (0 Bft) O-SO 110 0 min 147 lux 8,7 C 10,8 C
06.06.2010 05:12 10,8 C 11,9 C 12,5 C 87 % 1016 hPa 0,0 l/m 0,0 m/s (0 Bft) O-SO 110 0 min 291 lux 8,7 C 10,8 C
06.06.2010 05:17 10,7 C 11,8 C 12,3 C 87 % 1016 hPa 0,0 l/m 0,0 m/s (0 Bft) O-SO 110 0 min 291 lux 8,6 C 10,7 C
06.06.2010 05:22 10,8 C 11,8 C 12,6 C 88 % 1016 hPa 0,0 l/m 0,0 m/s (0 Bft) O-SO 115 0 min 570 lux 8,9 C 10,8 C
06.06.2010 05:28 10,8 C 11,8 C 12,6 C 88 % 1016 hPa 0,0 l/m 0,0 m/s (0 Bft) O-SO 115 0 min 847 lux 8,9 C 10,8 C
06.06.2010 05:33 10,9 C 11,8 C 12,7 C 88 % 1016 hPa 0,0 l/m 0,0 m/s (0 Bft) O-SO 115 0 min 1,20 klux 9,0 C 10,9 C
06.06.2010 05:38 10,9 C 11,8 C 12,3 C 88 % 1016 hPa 0,0 l/m 0,0 m/s (0 Bft) O-SO 115 0 min 1,68 klux 9,0 C 10,9 C
06.06.2010 05:43 11,0 C 11,8 C 12,3 C 88 % 1016 hPa 0,0 l/m 0,0 m/s (0 Bft) O-SO 115 0 min 2,07 klux 9,1 C 11,0 C
06.06.2010 05:48 10,9 C 11,8 C 12,3 C 88 % 1016 hPa 0,0 l/m 0,0 m/s (0 Bft) O-SO 115 0 min 2,64 klux 9,0 C 10,9 C
06.06.2010 05:53 10,9 C 11,8 C 12,3 C 88 % 1016 hPa 0,0 l/m 0,0 m/s (0 Bft) O-SO 115 0 min 3,36 klux 9,0 C 10,9 C
06.06.2010 05:58 10,9 C 11,8 C 12,6 C 88 % 1016 hPa 0,0 l/m 0,0 m/s (0 Bft) O-SO 115 0 min 3,90 klux 9,0 C 10,9 C
06.06.2010 06:03 11,0 C 11,8 C 12,4 C 88 % 1016 hPa 0,0 l/m 0,0 m/s (0 Bft) O-SO 115 0 min 4,38 klux 9,1 C 11,0 C
06.06.2010 06:08 11,0 C 11,8 C 12,5 C 88 % 1016 hPa 0,0 l/m 0,0 m/s (0 Bft) O-SO 115 0 min 4,71 klux 9,1 C 11,0 C
06.06.2010 06:13 10,9 C 11,8 C 12,2 C 88 % 1016 hPa 0,0 l/m 0,0 m/s (0 Bft) O-SO 115 0 min 5,11 klux 9,0 C 10,9 C
06.06.2010 06:18 11,0 C 11,8 C 12,6 C 88 % 1015 hPa 0,0 l/m 0,0 m/s (0 Bft) O-SO 115 0 min 5,95 klux 9,1 C 11,0 C
06.06.2010 06:23 11,2 C 11,8 C 12,8 C 87 % 1015 hPa 0,0 l/m 0,0 m/s (0 Bft) O-SO 115 0 min 6,66 klux 9,1 C 11,2 C
06.06.2010 06:28 11,2 C 11,8 C 12,8 C 87 % 1015 hPa 0,0 l/m 0,0 m/s (0 Bft) O-SO 115 0 min 7,80 klux 9,1 C 11,2 C
06.06.2010 06:33 11,4 C 11,9 C 12,8 C 87 % 1015 hPa 0,0 l/m 0,0 m/s (0 Bft) O-SO 115 5 min 15,3 klux 9,3 C 11,4 C
06.06.2010 06:38 11,6 C 12,0 C 13,0 C 87 % 1015 hPa 0,0 l/m 0,0 m/s (0 Bft) O-SO 115 5 min 17,3 klux 9,5 C 11,6 C
06.06.2010 06:42 11,7 C 12,0 C 13,3 C 88 % 1015 hPa 0,0 l/m 0,0 m/s (0 Bft) O-SO 115 4 min 17,3 klux 9,8 C 11,7 C
06.06.2010 06:47 12,8 C 12,1 C 13,4 C 87 % 1015 hPa 0,0 l/m 0,0 m/s (0 Bft) O-SO 110 5 min 19,4 klux 10,7 C 12,8 C
06.06.2010 06:52 13,9 C 12,2 C 13,4 C 85 % 1015 hPa 0,0 l/m 0,0 m/s (0 Bft) O-SO 110 5 min 21,1 klux 11,4 C 13,9 C
06.06.2010 06:57 13,9 C 12,2 C 13,4 C 85 % 1015 hPa 0,0 l/m 0,0 m/s (0 Bft) O-SO 110 5 min 21,1 klux 11,4 C 13,9 C
06.06.2010 07:02 15,8 C 12,4 C 13,9 C 80 % 1015 hPa 0,0 l/m 0,0 m/s (0 Bft) O-SO 110 5 min 23,1 klux 12,4 C 15,8 C
06.06.2010 07:07 16,6 C 12,5 C 14,3 C 77 % 1015 hPa 0,0 l/m 0,0 m/s (0 Bft) O-SO 110 5 min 23,9 klux 12,5 C 16,6 C
06.06.2010 07:12 17,2 C 12,7 C 16,4 C 75 % 1015 hPa 0,0 l/m 0,0 m/s (0 Bft) O-SO 110 5 min 29,2 klux 12,7 C 17,2 C
06.06.2010 07:17 18,4 C 12,8 C 19,0 C 71 % 1015 hPa 0,0 l/m 0,0 m/s (0 Bft) O-SO 110 5 min 31,7 klux 13,0 C 18,4 C
06.06.2010 07:22 19,0 C 13,0 C 19,2 C 69 % 1015 hPa 0,0 l/m 0,0 m/s (0 Bft) O-SO 110 5 min 31,7 klux 13,2 C 19,0 C
06.06.2010 07:27 19,4 C 13,2 C 19,2 C 66 % 1015 hPa 0,0 l/m 0,0 m/s (0 Bft) O-SO 110 5 min 37,5 klux 12,9 C 19,4 C
06.06.2010 07:32 19,8 C 13,2 C 20,8 C 66 % 1015 hPa 0,0 l/m 0,0 m/s (0 Bft) O-SO 110 5 min 34,0 klux 13,3 C 19,8 C
06.06.2010 07:37 20,2 C 13,5 C 22,2 C 65 % 1015 hPa 0,0 l/m 0,0 m/s (0 Bft) O-SO 110 5 min 39,8 klux 13,4 C 20,2 C
06.06.2010 07:42 20,1 C 13,7 C 21,1 C 64 % 1015 hPa 0,0 l/m 0,0 m/s (0 Bft) O-SO 110 5 min 39,4 klux 13,1 C 20,1 C
06.06.2010 07:47 19,8 C 13,8 C 21,4 C 64 % 1015 hPa 0,0 l/m 0,0 m/s (0 Bft) O-SO 110 5 min 28,4 klux 12,8 C 19,8 C
06.06.2010 07:52 20,1 C 14,0 C 20,7 C 63 % 1015 hPa 0,0 l/m 0,0 m/s (0 Bft) O-SO 110 5 min 33,5 klux 12,8 C 20,1 C
06.06.2010 07:57 20,3 C 14,3 C 21,7 C 64 % 1015 hPa 0,0 l/m 0,0 m/s (0 Bft) O-SO 110 5 min 35,9 klux 13,3 C 20,3 C
06.06.2010 08:02 20,4 C 14,6 C 22,2 C 63 % 1015 hPa 0,0 l/m 0,0 m/s (0 Bft) O-SO 110 5 min 41,3 klux 13,1 C 20,4 C
06.06.2010 08:07 20,2 C 14,7 C 20,5 C 63 % 1015 hPa 0,0 l/m 0,0 m/s (0 Bft) O-SO 110 5 min 35,2 klux 12,9 C 20,2 C
06.06.2010 08:12 19,8 C 15,0 C 21,6 C 63 % 1015 hPa 0,0 l/m 0,0 m/s (0 Bft) O-SO 110 5 min 38,7 klux 12,5 C 19,8 C
06.06.2010 08:17 19,7 C 15,3 C 20,6 C 64 % 1015 hPa 0,0 l/m 0,0 m/s (0 Bft) O-SO 115 5 min 40,3 klux 12,7 C 19,7 C
06.06.2010 08:22 20,0 C 15,5 C 22,9 C 65 % 1015 hPa 0,0 l/m 0,0 m/s (0 Bft) O-SO 115 5 min 46,7 klux 13,2 C 20,0 C
06.06.2010 08:27 21,1 C 15,9 C 22,9 C 64 % 1015 hPa 0,0 l/m 0,0 m/s (0 Bft) O-SO 115 5 min 44,6 klux 14,0 C 21,1 C
06.06.2010 08:32 21,4 C 16,2 C 22,0 C 63 % 1015 hPa 0,0 l/m 0,0 m/s (0 Bft) O-SO 115 5 min 44,0 klux 14,1 C 21,4 C
06.06.2010 08:37 21,2 C 16,5 C 21,6 C 63 % 1015 hPa 0,0 l/m 0,0 m/s (0 Bft) O-SO 120 0 min 34,7 klux 13,9 C 21,2 C
06.06.2010 08:42 20,6 C 16,6 C 21,6 C 64 % 1015 hPa 0,0 l/m 0,0 m/s (0 Bft) SO22.5 125 0 min 36,3 klux 13,5 C 20,6 C
06.06.2010 08:47 20,2 C 17,0 C 21,1 C 66 % 1015 hPa 0,0 l/m 0,0 m/s (0 Bft) SO22.5 125 0 min 33,5 klux 13,6 C 20,2 C
06.06.2010 08:52 20,2 C 17,0 C 21,6 C 67 % 1015 hPa 0,0 l/m 0,0 m/s (0 Bft) SO 125 0 min 39,9 klux 13,9 C 20,2 C
06.06.2010 08:57 20,2 C 17,5 C 21,7 C 67 % 1015 hPa 0,0 l/m 0,0 m/s (0 Bft) SO 125 0 min 38,7 klux 13,9 C 20,2 C
06.06.2010 09:02 20,4 C 17,8 C 22,8 C 66 % 1015 hPa 0,0 l/m 0,0 m/s (0 Bft) SO 130 5 min 50,3 klux 13,8 C 20,4 C
06.06.2010 09:07 20,6 C 18,2 C 22,7 C 66 % 1015 hPa 0,0 l/m 0,0 m/s (0 Bft) SO 125 5 min 48,4 klux 14,0 C 20,6 C
06.06.2010 09:12 20,7 C 18,3 C 22,5 C 66 % 1015 hPa 0,0 l/m 0,0 m/s (0 Bft) O-SO22.5 115 5 min 49,0 klux 14,1 C 20,7 C
06.06.2010 09:17 20,6 C 18,6 C 22,5 C 66 % 1015 hPa 0,0 l/m 1,1 m/s (1 Bft) SO45 125 5 min 53,0 klux 14,0 C 20,6 C
06.06.2010 09:22 20,9 C 18,9 C 22,9 C 66 % 1014 hPa 0,0 l/m 1,9 m/s (2 Bft) SO22.5 145 5 min 50,8 klux 14,3 C 20,8 C
06.06.2010 09:27 21,1 C 19,2 C 23,5 C 65 % 1014 hPa 0,0 l/m 0,2 m/s (0 Bft) SO22.5 125 5 min 60,1 klux 14,3 C 21,1 C
06.06.2010 09:32 21,6 C 19,3 C 24,2 C 62 % 1014 hPa 0,0 l/m 2,2 m/s (2 Bft) SO22.5 130 5 min 62,7 klux 14,0 C 21,1 C
06.06.2010 09:37 21,6 C 19,7 C 24,6 C 64 % 1014 hPa 0,0 l/m 1,9 m/s (2 Bft) O-SO22.5 110 5 min 63,9 klux 14,5 C 21,5 C
06.06.2010 09:42 21,6 C 20,0 C 24,7 C 64 % 1014 hPa 0,0 l/m 1,7 m/s (2 Bft) SO22.5 125 5 min 63,9 klux 14,5 C 21,6 C
06.06.2010 09:47 21,9 C 20,4 C 24,7 C 62 % 1014 hPa 0,0 l/m 2,1 m/s (2 Bft) O-SO45 115 5 min 61,7 klux 14,3 C 21,5 C
06.06.2010 09:52 22,1 C 20,6 C 24,8 C 64 % 1014 hPa 0,0 l/m 1,5 m/s (1 Bft) O22.5 95 5 min 52,3 klux 15,0 C 22,1 C
06.06.2010 09:57 22,1 C 21,6 C 24,8 C 64 % 1014 hPa 0,0 l/m 1,9 m/s (2 Bft) O-SO22.5 115 5 min 59,4 klux 15,0 C 21,9 C
06.06.2010 10:02 22,4 C 21,9 C 24,8 C 64 % 1014 hPa 0,0 l/m 1,6 m/s (1 Bft) SO22.5 125 5 min 62,0 klux 15,2 C 22,4 C
06.06.2010 10:07 22,6 C 22,7 C 25,5 C 62 % 1014 hPa 0,0 l/m 1,6 m/s (2 Bft) O-SO22.5 115 5 min 67,0 klux 14,9 C 22,6 C
06.06.2010 10:12 22,8 C 23,3 C 25,4 C 62 % 1014 hPa 0,0 l/m 2,3 m/s (2 Bft) O-SO22.5 105 5 min 67,7 klux 15,1 C 22,3 C
06.06.2010 10:18 23,0 C 24,2 C 25,7 C 62 % 1014 hPa 0,0 l/m 2,6 m/s (2 Bft) O-SO22.5 110 6 min 73,4 klux 15,3 C 22,1 C
06.06.2010 10:22 23,1 C 24,6 C 25,8 C 60 % 1014 hPa 0,0 l/m 2,2 m/s (2 Bft) SO45 125 4 min 74,3 klux 14,9 C 22,6 C
06.06.2010 10:27 23,2 C 25,2 C 26,3 C 62 % 1014 hPa 0,0 l/m 2,2 m/s (2 Bft) O45 100 5 min 78,4 klux 15,5 C 22,8 C
06.06.2010 10:32 23,3 C 26,0 C 26,8 C 61 % 1014 hPa 0,0 l/m 2,4 m/s (2 Bft) O-SO45 120 5 min 78,1 klux 15,3 C 22,7 C
06.06.2010 10:37 23,7 C 26,5 C 27,2 C 60 % 1014 hPa 0,0 l/m 2,9 m/s (2 Bft) SO45 130 5 min 83,4 klux 15,5 C 22,6 C
06.06.2010 10:42 24,0 C 27,4 C 27,3 C 58 % 1014 hPa 0,0 l/m 3,0 m/s (2 Bft) S-SO45 150 5 min 80,4 klux 15,2 C 22,9 C
06.06.2010 10:47 24,0 C 27,9 C 27,3 C 58 % 1014 hPa 0,0 l/m 3,0 m/s (2 Bft) SO45 125 5 min 84,2 klux 15,2 C 22,9 C
06.06.2010 10:52 24,2 C 28,2 C 28,0 C 58 % 1014 hPa 0,0 l/m 2,3 m/s (2 Bft) O-SO45 105 5 min 76,5 klux 15,4 C 23,7 C
06.06.2010 10:57 24,6 C 28,9 C 28,0 C 58 % 1014 hPa 0,0 l/m 2,7 m/s (2 Bft) S-SO45 150 5 min 81,0 klux 15,8 C 23,8 C
06.06.2010 11:03 24,7 C 29,0 C 28,3 C 57 % 1014 hPa 0,0 l/m 3,5 m/s (3 Bft) SO22.5 125 6 min 82,8 klux 15,6 C 23,4 C
06.06.2010 11:08 24,9 C 29,5 C 28,7 C 52 % 1014 hPa 0,0 l/m 3,6 m/s (3 Bft) SO67.5 130 5 min 81,4 klux 14,4 C 23,5 C
06.06.2010 11:12 25,6 C 29,5 C 28,8 C 49 % 1014 hPa 0,0 l/m 3,8 m/s (3 Bft) S-SO67.5 160 4 min 90,3 klux 14,1 C 24,2 C
06.06.2010 11:17 25,8 C 29,8 C 29,5 C 45 % 1014 hPa 0,0 l/m 2,9 m/s (2 Bft) S67.5 185 5 min 88,3 klux 13,0 C 25,0 C
06.06.2010 11:22 25,7 C 30,0 C 29,6 C 48 % 1014 hPa 0,0 l/m 2,3 m/s (2 Bft) S-SO22.5 160 5 min 80,4 klux 13,9 C 25,3 C
06.06.2010 11:27 25,9 C 30,1 C 30,2 C 46 % 1014 hPa 0,0 l/m 0,4 m/s (1 Bft) S67.5 185 5 min 78,9 klux 13,4 C 25,9 C
06.06.2010 11:32 26,1 C 30,3 C 30,1 C 46 % 1014 hPa 0,0 l/m 2,4 m/s (2 Bft) S22.5 190 5 min 83,8 klux 13,6 C 25,6 C
06.06.2010 11:37 26,2 C 30,6 C 30,3 C 43 % 1014 hPa 0,0 l/m 2,2 m/s (2 Bft) S-SW22.5 205 5 min 77,2 klux 12,6 C 25,9 C
06.06.2010 11:42 26,2 C 30,6 C 30,3 C 45 % 1013 hPa 0,0 l/m 2,9 m/s (2 Bft) S45 185 5 min 91,0 klux 13,3 C 25,4 C
06.06.2010 11:47 26,5 C 30,6 C 30,8 C 43 % 1013 hPa 0,0 l/m 2,7 m/s (2 Bft) S-SW45 205 5 min 94,0 klux 12,9 C 25,9 C
06.06.2010 11:53 26,5 C 30,7 C 30,6 C 43 % 1013 hPa 0,0 l/m 0,8 m/s (1 Bft) S-SO45 150 6 min 87,5 klux 12,9 C 26,5 C
06.06.2010 11:57 26,6 C 30,9 C 30,3 C 41 % 1013 hPa 0,0 l/m 2,9 m/s (2 Bft) SW45 215 4 min 85,2 klux 12,2 C 25,9 C
06.06.2010 12:02 26,8 C 31,1 C 30,0 C 40 % 1013 hPa 0,0 l/m 2,6 m/s (2 Bft) S67.5 185 5 min 87,6 klux 12,1 C 26,2 C
06.06.2010 12:07 26,7 C 30,9 C 30,3 C 41 % 1013 hPa 0,0 l/m 3,4 m/s (2 Bft) W-SW45 240 5 min 76,9 klux 12,3 C 25,7 C
06.06.2010 12:12 26,2 C 30,8 C 31,5 C 42 % 1013 hPa 0,0 l/m 2,8 m/s (2 Bft) W-SW45 245 5 min 93,4 klux 12,3 C 25,5 C
06.06.2010 12:17 26,5 C 30,9 C 30,7 C 43 % 1013 hPa 0,0 l/m 3,1 m/s (2 Bft) S-SO45 165 5 min 93,0 klux 12,9 C 25,6 C
06.06.2010 12:22 26,8 C 30,9 C 30,9 C 44 % 1013 hPa 0,0 l/m 3,2 m/s (2 Bft) S-SO67.5 160 5 min 88,5 klux 13,5 C 25,9 C
06.06.2010 12:27 26,9 C 31,0 C 31,3 C 44 % 1013 hPa 0,0 l/m 2,8 m/s (2 Bft) S67.5 180 5 min 97,0 klux 13,6 C 26,2 C
06.06.2010 12:33 27,0 C 31,7 C 31,0 C 41 % 1013 hPa 0,0 l/m 1,9 m/s (2 Bft) S22.5 175 6 min 97,6 klux 12,6 C 26,9 C
06.06.2010 12:37 27,2 C 31,2 C 31,4 C 42 % 1013 hPa 0,0 l/m 3,1 m/s (2 Bft) S22.5 170 4 min 93,2 klux 13,2 C 26,4 C
06.06.2010 12:42 27,3 C 31,1 C 31,3 C 41 % 1013 hPa 0,0 l/m 3,7 m/s (3 Bft) S45 185 5 min 84,5 klux 12,9 C 26,3 C
06.06.2010 12:47 27,3 C 31,5 C 32,1 C 40 % 1013 hPa 0,0 l/m 3,9 m/s (3 Bft) S-SW45 200 5 min 102 klux 12,5 C 26,2 C
06.06.2010 12:52 27,4 C 31,5 C 32,0 C 41 % 1013 hPa 0,0 l/m 2,7 m/s (2 Bft) S-SW22.5 195 5 min 93,1 klux 13,0 C 26,8 C
06.06.2010 12:57 27,5 C 32,4 C 32,4 C 40 % 1013 hPa 0,0 l/m 0,3 m/s (1 Bft) S-SW45 200 5 min 94,0 klux 12,7 C 27,5 C
06.06.2010 13:02 27,6 C 32,8 C 32,3 C 40 % 1013 hPa 0,0 l/m 2,9 m/s (2 Bft) S45 180 5 min 94,7 klux 12,8 C 27,0 C
06.06.2010 13:08 27,8 C 32,8 C 32,4 C 40 % 1013 hPa 0,0 l/m 3,6 m/s (3 Bft) S67.5 180 6 min 97,6 klux 12,9 C 26,9 C
06.06.2010 13:13 28,0 C 32,7 C 31,7 C 39 % 1013 hPa 0,0 l/m 4,3 m/s (3 Bft) S67.5 170 5 min 91,9 klux 12,7 C 26,9 C
06.06.2010 13:18 28,0 C 32,5 C 32,0 C 38 % 1013 hPa 0,0 l/m 4,6 m/s (3 Bft) S67.5 185 5 min 98,1 klux 12,3 C 26,8 C
06.06.2010 13:23 28,0 C 32,9 C 32,7 C 40 % 1013 hPa 0,0 l/m 1,7 m/s (2 Bft) S67.5 185 5 min 81,5 klux 13,1 C 28,0 C
06.06.2010 13:28 28,0 C 32,8 C 32,1 C 37 % 1013 hPa 0,0 l/m 7,6 m/s (4 Bft) S-SO45 150 5 min 97,9 klux 11,9 C 26,1 C
06.06.2010 13:33 28,0 C 32,7 C 32,1 C 36 % 1012 hPa 0,0 l/m 4,9 m/s (3 Bft) S-SO67.5 150 5 min 92,2 klux 11,5 C 26,7 C
06.06.2010 13:38 28,0 C 32,6 C 32,6 C 38 % 1012 hPa 0,0 l/m 4,1 m/s (3 Bft) S-SW67.5 205 5 min 95,7 klux 12,3 C 27,0 C
06.06.2010 13:43 28,1 C 32,6 C 32,2 C 38 % 1012 hPa 0,0 l/m 2,9 m/s (2 Bft) SW67.5 215 5 min 88,6 klux 12,4 C 27,5 C
06.06.2010 13:48 27,7 C 32,1 C 32,6 C 37 % 1012 hPa 0,0 l/m 4,2 m/s (3 Bft) SW45 235 0 min 48,6 klux 11,7 C 26,6 C
06.06.2010 13:53 27,8 C 32,1 C 32,8 C 39 % 1012 hPa 0,0 l/m 5,7 m/s (4 Bft) W-SW45 250 5 min 99 klux 12,6 C 26,2 C
06.06.2010 13:58 27,6 C 31,8 C 31,9 C 39 % 1012 hPa 0,0 l/m 5,5 m/s (4 Bft) W45 260 5 min 88,5 klux 12,4 C 26,0 C
06.06.2010 14:03 27,2 C 31,4 C 31,8 C 40 % 1012 hPa 0,0 l/m 6,5 m/s (4 Bft) W-SW45 250 0 min 37,1 klux 12,4 C 25,3 C
06.06.2010 14:08 27,4 C 31,5 C 32,4 C 41 % 1012 hPa 0,0 l/m 2,9 m/s (2 Bft) SW45 215 5 min 102 klux 13,0 C 26,8 C
06.06.2010 14:13 28,0 C 32,1 C 32,9 C 41 % 1012 hPa 0,0 l/m 4,8 m/s (3 Bft) S67.5 170 5 min 91,7 klux 13,5 C 26,7 C
06.06.2010 14:18 28,3 C 32,3 C 32,6 C 39 % 1012 hPa 0,0 l/m 4,8 m/s (3 Bft) W-SW67.5 245 5 min 101 klux 13,0 C 27,1 C
06.06.2010 14:22 28,4 C 32,8 C 32,9 C 39 % 1012 hPa 0,0 l/m 7,0 m/s (4 Bft) SW67.5 230 4 min 105 klux 13,1 C 26,8 C
06.06.2010 14:27 28,0 C 33,1 C 31,7 C 39 % 1012 hPa 0,0 l/m 4,9 m/s (3 Bft) SW45 235 0 min 51,4 klux 12,7 C 26,7 C
06.06.2010 14:32 28,2 C 33,1 C 32,5 C 39 % 1012 hPa 0,0 l/m 2,9 m/s (2 Bft) S67.5 175 5 min 98,5 klux 12,9 C 27,7 C
06.06.2010 14:37 28,4 C 33,2 C 32,2 C 40 % 1012 hPa 0,0 l/m 5,2 m/s (3 Bft) S-SW67.5 195 5 min 100 klux 13,5 C 27,2 C
06.06.2010 14:42 28,8 C 33,4 C 32,6 C 38 % 1012 hPa 0,0 l/m 4,5 m/s (3 Bft) W-SW45 240 5 min 101 klux 13,0 C 27,8 C
06.06.2010 14:47 29,0 C 34,1 C 32,6 C 36 % 1012 hPa 0,0 l/m 4,8 m/s (3 Bft) S-SO67.5 150 5 min 104 klux 12,4 C 28,0 C
06.06.2010 14:52 28,6 C 34,1 C 31,3 C 38 % 1012 hPa 0,0 l/m 6,7 m/s (4 Bft) SO45 145 0 min 31,7 klux 12,9 C 27,1 C
06.06.2010 14:57 27,9 C 32,7 C 31,2 C 39 % 1012 hPa 0,0 l/m 5,4 m/s (3 Bft) W-SW45 240 0 min 39,7 klux 12,6 C 26,5 C
06.06.2010 15:02 27,9 C 32,3 C 31,4 C 40 % 1011 hPa 0,0 l/m 5,9 m/s (4 Bft) S-SW67.5 205 5 min 72,5 klux 13,0 C 26,3 C
06.06.2010 15:07 28,0 C 32,0 C 31,2 C 39 % 1011 hPa 0,0 l/m 2,1 m/s (2 Bft) SW67.5 230 0 min 37,9 klux 12,7 C 27,8 C
06.06.2010 15:13 28,0 C 32,0 C 30,8 C 41 % 1011 hPa 0,0 l/m 2,3 m/s (2 Bft) SO45 135 6 min 111 klux 13,5 C 27,7 C
06.06.2010 15:18 28,3 C 33,0 C 31,2 C 40 % 1011 hPa 0,0 l/m 2,9 m/s (2 Bft) SO45 125 5 min 92,5 klux 13,4 C 27,8 C
06.06.2010 15:23 28,0 C 32,6 C 30,3 C 40 % 1011 hPa 0,0 l/m 3,2 m/s (2 Bft) SW45 225 0 min 57,6 klux 13,1 C 27,3 C
06.06.2010 15:28 27,9 C 32,0 C 31,1 C 40 % 1011 hPa 0,0 l/m 3,4 m/s (2 Bft) S-SW45 210 0 min 28,4 klux 13,0 C 27,1 C
06.06.2010 15:33 27,5 C 30,9 C 30,7 C 41 % 1011 hPa 0,0 l/m 4,2 m/s (3 Bft) SW45 220 0 min 19,8 klux 13,1 C 26,3 C
06.06.2010 15:38 27,4 C 30,4 C 30,2 C 41 % 1011 hPa 0,0 l/m 2,4 m/s (2 Bft) S22.5 170 0 min 19,8 klux 13,0 C 27,0 C
06.06.2010 15:43 27,2 C 30,1 C 30,0 C 42 % 1011 hPa 0,0 l/m 2,5 m/s (2 Bft) S22.5 170 0 min 43,7 klux 13,2 C 26,7 C
06.06.2010 15:48 27,2 C 30,4 C 30,4 C 42 % 1011 hPa 0,0 l/m 3,0 m/s (2 Bft) SW67.5 225 5 min 101 klux 13,2 C 26,5 C
06.06.2010 15:53 28,4 C 31,8 C 30,3 C 40 % 1011 hPa 0,0 l/m 3,6 m/s (3 Bft) S67.5 175 5 min 96,7 klux 13,5 C 27,6 C
06.06.2010 15:58 28,5 C 32,9 C 29,6 C 41 % 1011 hPa 0,0 l/m 4,5 m/s (3 Bft) W45 260 5 min 86,9 klux 13,9 C 27,5 C
06.06.2010 16:02 28,7 C 33,3 C 29,8 C 39 % 1011 hPa 0,0 l/m 3,8 m/s (3 Bft) SW67.5 220 4 min 78,6 klux 13,4 C 27,9 C
06.06.2010 16:07 28,5 C 33,7 C 28,9 C 39 % 1011 hPa 0,0 l/m 4,1 m/s (3 Bft) S67.5 175 5 min 69,1 klux 13,2 C 27,6 C
06.06.2010 16:12 28,6 C 33,0 C 29,3 C 40 % 1011 hPa 0,0 l/m 4,1 m/s (3 Bft) S-SO22.5 160 5 min 81,2 klux 13,7 C 27,7 C
06.06.2010 16:17 28,6 C 33,0 C 29,2 C 40 % 1011 hPa 0,0 l/m 1,8 m/s (2 Bft) S45 185 5 min 74,6 klux 13,7 C 28,6 C
06.06.2010 16:22 28,9 C 33,2 C 29,6 C 39 % 1011 hPa 0,0 l/m 3,4 m/s (3 Bft) S-SO45 160 0 min 53,0 klux 13,5 C 28,3 C
06.06.2010 16:27 28,8 C 33,2 C 29,9 C 39 % 1011 hPa 0,0 l/m 1,9 m/s (2 Bft) SW67.5 220 0 min 53,1 klux 13,4 C 28,7 C
06.06.2010 16:32 28,6 C 33,3 C 29,3 C 40 % 1011 hPa 0,0 l/m 2,7 m/s (2 Bft) SW45 235 0 min 50,8 klux 13,7 C 28,2 C
06.06.2010 16:37 28,4 C 32,9 C 29,2 C 40 % 1011 hPa 0,0 l/m 3,2 m/s (2 Bft) S67.5 190 0 min 36,2 klux 13,5 C 27,7 C
06.06.2010 16:42 28,1 C 32,3 C 28,4 C 41 % 1011 hPa 0,0 l/m 4,3 m/s (3 Bft) S-SO22.5 155 0 min 39,1 klux 13,6 C 27,0 C
06.06.2010 16:47 27,8 C 31,4 C 28,5 C 40 % 1010 hPa 0,0 l/m 4,5 m/s (3 Bft) S22.5 170 0 min 23,1 klux 12,9 C 26,6 C
06.06.2010 16:52 27,2 C 30,9 C 28,3 C 42 % 1010 hPa 0,0 l/m 4,7 m/s (3 Bft) SW67.5 225 0 min 22,0 klux 13,2 C 25,8 C
06.06.2010 16:57 27,0 C 30,3 C 28,8 C 43 % 1010 hPa 0,0 l/m 2,3 m/s (2 Bft) S-SW22.5 200 0 min 20,8 klux 13,3 C 26,7 C
06.06.2010 17:02 27,0 C 29,8 C 28,2 C 44 % 1010 hPa 0,0 l/m 2,6 m/s (2 Bft) S-SW45 205 0 min 20,7 klux 13,7 C 26,4 C
06.06.2010 17:07 26,8 C 29,7 C 28,2 C 45 % 1010 hPa 0,0 l/m 2,7 m/s (2 Bft) SW45 215 0 min 19,6 klux 13,9 C 26,2 C
06.06.2010 17:12 26,4 C 29,2 C 27,8 C 44 % 1010 hPa 0,0 l/m 2,6 m/s (2 Bft) W-SW67.5 240 0 min 14,8 klux 13,1 C 25,8 C
06.06.2010 17:17 26,0 C 28,6 C 27,2 C 46 % 1010 hPa 0,0 l/m 2,6 m/s (2 Bft) SW67.5 215 0 min 9,1 klux 13,5 C 25,4 C
06.06.2010 17:22 26,0 C 28,4 C 26,9 C 46 % 1010 hPa 0,0 l/m 3,2 m/s (2 Bft) SW22.5 230 0 min 6,98 klux 13,5 C 25,0 C
06.06.2010 17:27 25,5 C 28,0 C 27,3 C 48 % 1010 hPa 0,0 l/m 2,8 m/s (2 Bft) W-SW22.5 245 0 min 6,34 klux 13,7 C 24,7 C
06.06.2010 17:32 25,2 C 27,6 C 27,2 C 48 % 1010 hPa 0,0 l/m 2,9 m/s (2 Bft) W-SW45 240 0 min 4,31 klux 13,4 C 24,3 C
06.06.2010 17:37 24,8 C 26,4 C 25,5 C 53 % 1010 hPa 0,0 l/m 12,5 m/s (6 Bft) NW45 305 0 min 3,10 klux 14,6 C 20,6 C
06.06.2010 17:42 22,7 C 25,9 C 24,5 C 61 % 1011 hPa 0,0 l/m 12,5 m/s (6 Bft) NW45 305 0 min 1,22 klux 14,8 C 17,4 C
06.06.2010 17:47 21,6 C 25,0 C 24,0 C 65 % 1011 hPa 0,0 l/m 9,3 m/s (5 Bft) W-NW45 290 0 min 605 lux 14,7 C 16,6 C
06.06.2010 17:52 21,2 C 24,2 C 22,5 C 68 % 1011 hPa 0,0 l/m 10,5 m/s (5 Bft) W-NW45 290 0 min 419 lux 15,1 C 15,7 C
06.06.2010 17:57 19,8 C 23,8 C 21,1 C 79 % 1012 hPa 2,5 l/m 7,7 m/s (4 Bft) W22.5 260 0 min 719 lux 16,0 C 14,7 C
06.06.2010 18:02 18,6 C 22,4 C 21,8 C 84 % 1012 hPa 4,3 l/m 4,6 m/s (3 Bft) SW67.5 230 0 min 975 lux 15,8 C 15,2 C
06.06.2010 18:07 18,3 C 21,5 C 21,7 C 85 % 1012 hPa 0,4 l/m 0,2 m/s (0 Bft) S 175 0 min 1,07 klux 15,7 C 18,3 C
06.06.2010 18:12 18,2 C 20,9 C 21,8 C 83 % 1012 hPa 0,7 l/m 0,3 m/s (0 Bft) S-SW45 195 0 min 1,09 klux 15,3 C 18,2 C
06.06.2010 18:17 18,2 C 20,7 C 21,0 C 84 % 1012 hPa 0,7 l/m 0,0 m/s (0 Bft) W 270 0 min 1,14 klux 15,4 C 18,2 C
06.06.2010 18:22 18,0 C 20,3 C 20,5 C 89 % 1012 hPa 0,4 l/m 1,5 m/s (1 Bft) S67.5 170 0 min 1,14 klux 16,2 C 18,0 C
06.06.2010 18:27 17,8 C 20,1 C 20,1 C 89 % 1012 hPa 0,0 l/m 2,4 m/s (2 Bft) SO22.5 130 0 min 1,15 klux 16,0 C 16,8 C
06.06.2010 18:32 17,8 C 20,0 C 20,1 C 88 % 1012 hPa 0,7 l/m 0,2 m/s (0 Bft) O-SO 115 0 min 1,13 klux 15,8 C 17,8 C
06.06.2010 18:37 17,9 C 19,8 C 21,1 C 87 % 1012 hPa 0,0 l/m 0,0 m/s (0 Bft) O-SO 115 0 min 1,10 klux 15,7 C 17,9 C
06.06.2010 18:42 17,9 C 19,6 C 19,5 C 88 % 1012 hPa 0,0 l/m 0,0 m/s (0 Bft) O-SO 115 0 min 1,08 klux 15,9 C 17,9 C
06.06.2010 18:47 17,8 C 19,6 C 19,5 C 88 % 1012 hPa 0,4 l/m 0,1 m/s (0 Bft) O-SO22.5 120 0 min 1,17 klux 15,8 C 17,8 C
06.06.2010 18:52 17,7 C 19,4 C 17,6 C 89 % 1012 hPa 0,0 l/m 1,2 m/s (1 Bft) O22.5 90 0 min 1,70 klux 15,9 C 17,7 C
06.06.2010 18:57 17,7 C 19,4 C 16,1 C 88 % 1012 hPa 0,4 l/m 0,0 m/s (0 Bft) O 85 0 min 2,61 klux 15,7 C 17,7 C
06.06.2010 19:02 17,9 C 19,3 C 15,6 C 87 % 1012 hPa 0,0 l/m 0,0 m/s (0 Bft) O 85 0 min 3,22 klux 15,7 C 17,9 C
06.06.2010 19:07 18,0 C 19,3 C 14,8 C 86 % 1012 hPa 0,0 l/m 0,0 m/s (0 Bft) O 85 0 min 3,43 klux 15,6 C 18,0 C
06.06.2010 19:12 18,0 C 19,2 C 15,7 C 86 % 1012 hPa 0,0 l/m 0,0 m/s (0 Bft) O 85 0 min 3,47 klux 15,6 C 18,0 C
06.06.2010 19:17 18,0 C 19,2 C 15,3 C 87 % 1012 hPa 0,0 l/m 0,1 m/s (0 Bft) O22.5 90 0 min 3,35 klux 15,8 C 18,0 C
06.06.2010 19:22 18,0 C 19,2 C 15,6 C 87 % 1012 hPa 0,4 l/m 0,0 m/s (0 Bft) O 95 0 min 3,03 klux 15,8 C 18,0 C
06.06.2010 19:27 18,1 C 19,2 C 15,5 C 87 % 1012 hPa 0,0 l/m 0,0 m/s (0 Bft) O 95 0 min 2,39 klux 15,9 C 18,1 C
06.06.2010 19:33 18,0 C 19,1 C 14,7 C 87 % 1012 hPa 0,0 l/m 0,0 m/s (0 Bft) O 100 0 min 1,87 klux 15,8 C 18,0 C
06.06.2010 19:38 18,0 C 19,0 C 14,5 C 86 % 1012 hPa 0,0 l/m 0,3 m/s (0 Bft) O-SO22.5 115 0 min 1,47 klux 15,6 C 18,0 C
06.06.2010 19:42 17,9 C 19,0 C 13,8 C 87 % 1012 hPa 0,4 l/m 1,5 m/s (1 Bft) S-SO22.5 155 0 min 1,29 klux 15,7 C 17,9 C
06.06.2010 19:47 17,8 C 18,9 C 13,1 C 87 % 1011 hPa 0,0 l/m 0,9 m/s (1 Bft) SO 145 0 min 1,24 klux 15,6 C 17,8 C
06.06.2010 19:52 17,6 C 18,8 C 14,5 C 87 % 1011 hPa 0,7 l/m 0,0 m/s (0 Bft) SO22.5 145 0 min 1,56 klux 15,4 C 17,6 C
06.06.2010 19:57 17,5 C 18,7 C 15,0 C 87 % 1011 hPa 0,0 l/m 0,0 m/s (0 Bft) SO 145 0 min 2,00 klux 15,3 C 17,5 C
06.06.2010 20:02 17,5 C 18,7 C 13,7 C 87 % 1011 hPa 0,0 l/m 0,0 m/s (0 Bft) SO 145 0 min 2,36 klux 15,3 C 17,5 C
06.06.2010 20:07 17,4 C 18,5 C 13,8 C 88 % 1011 hPa 0,0 l/m 0,9 m/s (1 Bft) S-SO 150 0 min 2,37 klux 15,4 C 17,4 C
06.06.2010 20:12 17,4 C 18,5 C 14,0 C 87 % 1011 hPa 0,0 l/m 0,0 m/s (0 Bft) S-SO 150 0 min 2,08 klux 15,2 C 17,4 C
06.06.2010 20:17 17,4 C 18,5 C 13,8 C 87 % 1011 hPa 0,0 l/m 0,0 m/s (0 Bft) SO 145 0 min 1,28 klux 15,2 C 17,4 C
06.06.2010 20:23 17,4 C 18,4 C 14,0 C 87 % 1011 hPa 0,0 l/m 0,0 m/s (0 Bft) S-SO 150 0 min 1,32 klux 15,2 C 17,4 C
06.06.2010 20:28 17,5 C 18,4 C 14,1 C 87 % 1011 hPa 0,0 l/m 0,0 m/s (0 Bft) S-SO 150 0 min 1,39 klux 15,3 C 17,5 C
06.06.2010 20:32 17,4 C 18,4 C 14,2 C 88 % 1011 hPa 0,0 l/m 0,0 m/s (0 Bft) SO 145 0 min 1,35 klux 15,4 C 17,4 C
06.06.2010 20:37 17,4 C 18,4 C 13,9 C 89 % 1011 hPa 0,4 l/m 0,0 m/s (0 Bft) SO 145 0 min 1,23 klux 15,6 C 17,4 C
06.06.2010 20:42 17,4 C 18,3 C 13,9 C 88 % 1011 hPa 0,0 l/m 0,0 m/s (0 Bft) S-SO 150 0 min 1,09 klux 15,4 C 17,4 C
06.06.2010 20:47 17,2 C 18,3 C 13,8 C 88 % 1011 hPa 0,0 l/m 0,0 m/s (0 Bft) S-SO 150 0 min 914 lux 15,2 C 17,2 C
06.06.2010 20:52 17,2 C 18,3 C 13,6 C 88 % 1011 hPa 0,0 l/m 0,0 m/s (0 Bft) S-SO 150 0 min 683 lux 15,2 C 17,2 C
06.06.2010 20:57 17,1 C 18,2 C 13,5 C 89 % 1011 hPa 0,0 l/m 0,0 m/s (0 Bft) SO 145 0 min 722 lux 15,3 C 17,1 C
06.06.2010 21:02 17,0 C 18,1 C 13,8 C 90 % 1011 hPa 0,0 l/m 0,0 m/s (0 Bft) S-SO 150 0 min 722 lux 15,3 C 17,0 C
06.06.2010 21:08 16,9 C 18,1 C 13,2 C 89 % 1011 hPa 0,0 l/m 0,0 m/s (0 Bft) S-SO 155 0 min 661 lux 15,1 C 16,9 C
06.06.2010 21:13 16,9 C 18,0 C 13,0 C 89 % 1011 hPa 0,0 l/m 0,0 m/s (0 Bft) S-SO 155 0 min 549 lux 15,1 C 16,9 C
06.06.2010 21:17 16,8 C 18,0 C 13,7 C 90 % 1011 hPa 0,0 l/m 0,0 m/s (0 Bft) S-SO 150 0 min 405 lux 15,1 C 16,8 C
06.06.2010 21:22 16,7 C 17,9 C 13,1 C 90 % 1011 hPa 0,0 l/m 0,0 m/s (0 Bft) S-SO 155 0 min 288 lux 15,0 C 16,7 C
06.06.2010 21:27 16,7 C 17,9 C 13,1 C 90 % 1011 hPa 0,0 l/m 0,0 m/s (0 Bft) S-SO 150 0 min 185 lux 15,0 C 16,7 C
06.06.2010 21:32 16,6 C 17,8 C 13,3 C 92 % 1011 hPa 0,0 l/m 0,1 m/s (0 Bft) S-SO45 155 0 min 112 lux 15,3 C 16,6 C
06.06.2010 21:37 16,6 C 17,8 C 13,2 C 91 % 1011 hPa 0,0 l/m 0,0 m/s (0 Bft) S-SO 150 0 min 64 lux 15,1 C 16,6 C
06.06.2010 21:42 16,6 C 17,7 C 13,1 C 91 % 1011 hPa 0,0 l/m 0,0 m/s (0 Bft) S-SO 150 0 min 48 lux 15,1 C 16,6 C
06.06.2010 21:47 16,5 C 17,7 C 13,2 C 92 % 1011 hPa 0,0 l/m 1,3 m/s (1 Bft) O-NO 70 0 min 33 lux 15,2 C 16,5 C
06.06.2010 21:52 16,4 C 17,5 C 12,7 C 92 % 1011 hPa 0,0 l/m 0,6 m/s (1 Bft) SO 140 0 min 20 lux 15,1 C 16,4 C
06.06.2010 21:58 16,4 C 17,6 C 13,2 C 92 % 1011 hPa 0,0 l/m 1,8 m/s (2 Bft) W-SW22.5 250 0 min 14 lux 15,1 C 16,4 C
06.06.2010 22:03 16,4 C 17,5 C 13,2 C 91 % 1011 hPa 0,0 l/m 0,0 m/s (0 Bft) O-SO 115 0 min 9 lux 14,9 C 16,4 C
06.06.2010 22:07 16,4 C 17,4 C 13,2 C 91 % 1011 hPa 0,0 l/m 0,0 m/s (0 Bft) O-SO 115 0 min 6 lux 14,9 C 16,4 C
06.06.2010 22:12 16,3 C 17,4 C 12,8 C 91 % 1011 hPa 0,0 l/m 0,0 m/s (0 Bft) O-SO 115 0 min 3 lux 14,8 C 16,3 C
06.06.2010 22:17 16,3 C 17,4 C 13,3 C 91 % 1011 hPa 0,0 l/m 0,9 m/s (1 Bft) O-SO 120 0 min 0 lux 14,8 C 16,3 C
06.06.2010 22:22 16,3 C 17,3 C 13,3 C 91 % 1012 hPa 0,0 l/m 0,0 m/s (0 Bft) O-SO 120 0 min 0 lux 14,8 C 16,3 C
06.06.2010 22:27 16,3 C 17,3 C 13,4 C 91 % 1012 hPa 0,0 l/m 1,9 m/s (2 Bft) O-NO67.5 75 0 min 0 lux 14,8 C 16,0 C
06.06.2010 22:32 16,3 C 17,3 C 13,6 C 92 % 1012 hPa 0,0 l/m 2,6 m/s (2 Bft) W-NW22.5 300 0 min 0 lux 15,0 C 14,9 C
06.06.2010 22:37 16,3 C 17,3 C 13,6 C 92 % 1012 hPa 0,0 l/m 2,9 m/s (2 Bft) NW22.5 305 0 min 0 lux 15,0 C 14,4 C
06.06.2010 22:42 16,4 C 17,3 C 13,4 C 92 % 1012 hPa 0,0 l/m 0,1 m/s (0 Bft) W 260 0 min 0 lux 15,1 C 16,4 C
06.06.2010 22:48 16,4 C 17,3 C 13,7 C 92 % 1012 hPa 0,0 l/m 0,9 m/s (1 Bft) SO22.5 140 0 min 0 lux 15,1 C 16,4 C
06.06.2010 22:53 16,4 C 17,2 C 13,9 C 92 % 1012 hPa 0,0 l/m 0,0 m/s (0 Bft) SO 140 0 min 0 lux 15,1 C 16,4 C
06.06.2010 22:57 16,4 C 17,2 C 13,5 C 92 % 1011 hPa 0,0 l/m 0,0 m/s (0 Bft) SO 140 0 min 0 lux 15,1 C 16,4 C
06.06.2010 23:02 16,3 C 17,2 C 13,9 C 91 % 1012 hPa 0,0 l/m 1,0 m/s (1 Bft) SO 140 0 min 0 lux 14,8 C 16,3 C
06.06.2010 23:07 16,3 C 17,3 C 13,7 C 91 % 1012 hPa 0,0 l/m 1,4 m/s (1 Bft) SW67.5 230 0 min 0 lux 14,8 C 16,3 C
06.06.2010 23:12 16,3 C 17,2 C 13,7 C 92 % 1012 hPa 0,0 l/m 0,1 m/s (0 Bft) W 280 0 min 0 lux 15,0 C 16,3 C
06.06.2010 23:17 16,3 C 17,1 C 14,1 C 91 % 1012 hPa 0,0 l/m 1,2 m/s (1 Bft) W 280 0 min 0 lux 14,8 C 16,3 C
06.06.2010 23:22 16,3 C 17,1 C 13,9 C 91 % 1011 hPa 0,0 l/m 0,0 m/s (0 Bft) W 280 0 min 0 lux 14,8 C 16,3 C
06.06.2010 23:27 16,4 C 17,1 C 13,9 C 92 % 1011 hPa 0,0 l/m 0,0 m/s (0 Bft) W 280 0 min 0 lux 15,1 C 16,4 C
06.06.2010 23:33 16,4 C 17,1 C 14,0 C 92 % 1011 hPa 0,0 l/m 0,0 m/s (0 Bft) W 280 0 min 0 lux 15,1 C 16,4 C
06.06.2010 23:38 16,3 C 17,1 C 14,1 C 91 % 1011 hPa 0,0 l/m 0,0 m/s (0 Bft) W 280 0 min 0 lux 14,8 C 16,3 C
06.06.2010 23:42 16,3 C 17,1 C 14,3 C 92 % 1011 hPa 0,0 l/m 0,1 m/s (0 Bft) W 280 0 min 0 lux 15,0 C 16,3 C
06.06.2010 23:47 16,3 C 17,1 C 14,2 C 92 % 1011 hPa 0,0 l/m 0,0 m/s (0 Bft) W 280 0 min 0 lux 15,0 C 16,3 C
06.06.2010 23:52 16,3 C 17,1 C 14,1 C 92 % 1011 hPa 0,0 l/m 0,1 m/s (0 Bft) W 280 0 min 0 lux 15,0 C 16,3 C
06.06.2010 23:57 16,3 C 17,1 C 13,9 C 93 % 1011 hPa 0,4 l/m 1,9 m/s (2 Bft) W-SW22.5 245 0 min 0 lux 15,2 C 16,1 C
_ Min-Zeit 05:17 05:17 04:52 13:33 16:47 - 00:02 - - - - 04:42 05:17
Minimum _ 10,7 C 11,8 C 12,2 C 36 % 1010 hPa - 0,0 m/s (0 Bft) - - - - 8,6 C 10,7 C
_ Max-Zeit 14:47 14:47 14:13 23:57 00:02 18:02 17:37 - - 10:18 15:13 18:22 16:27
Maximum _ 29,0 C 34,1 C 32,9 C 93 % 1017 hPa 4,3 l/m 12,5 m/s
NW (6 Bft)
- - 6 min 111 klux 16,2 C 28,7 C
Durchschnitt _ 19,3 C 20,7 C 20,4 C 70 % 1013 hPa #12,6 l/m 1,4 m/s (1 Bft) S - #8:29 h 28,8 klux 12,8 C 18,9 C